sat.trackr.live / text

‹ back to catalog

STARLINK-35939

NORAD 66584 · 2025-268AD

PAYLOAD ACTIVE UNKNOWN

§ Identity

Operator
Country
US
Launch date
2025-11-21
Launch site
AFETR
Launch vehicle
Mass (kg)
RCS (m²)

Purposes: comms

External: N2YO · Heavens-Above · Gunter

§ Orbital elements

Epoch: 2026-09-20T09:46:56.403264Z

Period
94.27 min
Inclination
43.0007°
Eccentricity
0.0001139
Mean motion
15.27583277 rev/d
Perigee alt
482.3 km
Apogee alt
483.8 km
Semi-major
6,861.2 km
B*
4.6248e-4
RAAN
327.0209°
Arg perigee
280.1664°
Mean anomaly
79.9059°
Rev number
4,774

§ Raw data

STARLINK-359391 66584U 25268AD  26263.40759726  .00012487  00000+0  46248-3 0  99992 66584  43.0007 327.0209 0001139 280.1664  79.9059 15.27583277 47747

JSON: /api/v1/satellites/66584 · /tle

For live sub-satellite position, see the globe view (requires WebGL).

§ Visibility from observer

Set your observer location to see the next 7 days of passes ≥ 10°. The values pass through the URL so the page stays shareable.

No JS? Fill the form by hand. The geolocation button needs JavaScript.